Date String (YYYY-MM-DD hh:mm:ss) UTC,Instrument flags,Ambient pressure (hPa),Sample flow (lpm),Bypass flow (lpm),Sample temperature (°C),Ambient temperature (°C),ASC tube jacket temperature (°C),LED temperature (°C),Box temperature (°C),Sample RH (%),Span deviation,Mass concentration (μg/m³),Mass concentration (μg/m³),Mass concentration (μg/m³)
DateTimeUTC,F1_M11,P_M11,Q1_M11,Q2_M11,T1_M11,T2_M11,T3_M11,T4_M11,T5_M11,U1_M11,ZSPAN_M11,X0_M11,X2_M11,X1_M11
2022-07-12 17:00:00,,0830.1,5.01,0.00,29.4,28.0,00.0,38.1,31.3,33.1,0000.0,0021.80,0008.86,0007.58
2022-07-12 17:01:00,,0830.1,5.00,0.00,29.4,28.2,00.0,38.2,31.4,33.1,0000.0,0021.33,0008.86,0007.58
2022-07-12 17:02:00,,0830.1,5.00,0.00,29.5,28.3,00.0,38.2,31.4,32.9,0000.0,0019.98,0008.85,0007.59
2022-07-12 17:03:00,,0830.1,5.00,0.00,29.5,28.4,00.0,38.2,31.5,32.8,0000.0,0019.98,0008.83,0007.61
2022-07-12 17:04:00,,0830.1,4.99,0.00,29.5,27.9,00.0,38.1,31.4,32.6,0000.0,0020.41,0008.79,0007.62
2022-07-12 17:05:00,,0830.1,5.00,0.00,29.5,27.3,00.0,38.1,31.3,32.7,0000.0,0019.01,0008.84,0007.63
2022-07-12 17:06:00,,0830.1,5.00,0.00,29.4,27.2,00.0,38.1,31.2,33.1,0000.0,0018.33,0008.92,0007.66
2022-07-12 17:07:00,,0830.0,5.00,0.00,29.4,27.2,00.0,38.1,31.1,33.0,0000.0,0017.96,0008.94,0007.65
2022-07-12 17:08:00,,0830.1,5.00,0.00,29.3,27.3,00.0,38.1,31.1,33.1,0000.0,0019.38,0008.90,0007.64
2022-07-12 17:09:00,,0830.1,5.00,0.00,29.3,27.5,00.0,38.1,31.2,33.3,0000.0,0020.07,0008.89,0007.64
2022-07-12 17:10:00,,0830.1,4.99,0.00,29.3,27.7,00.0,38.1,31.2,33.2,0000.0,0020.43,0008.86,0007.64
2022-07-12 17:11:00,,0830.1,5.01,0.00,29.4,27.9,00.0,38.1,31.3,33.4,0000.0,0020.20,0008.84,0007.64
2022-07-12 17:12:00,,0830.1,5.01,0.00,29.4,28.0,00.0,38.1,31.3,33.8,0000.0,0019.97,0008.84,0007.63
2022-07-12 17:13:00,,0830.1,5.00,0.00,29.4,28.2,00.0,38.1,31.3,33.9,0000.0,0020.12,0008.83,0007.61
2022-07-12 17:14:00,,0830.1,5.00,0.00,29.4,28.3,00.0,38.2,31.4,33.7,0000.0,0020.07,0008.88,0007.59
2022-07-12 17:15:00,,0830.0,5.00,0.00,29.5,28.2,00.0,38.2,31.4,33.8,0000.0,0019.65,0008.89,0007.57
2022-07-12 17:16:00,,0830.0,4.99,0.00,29.5,27.7,00.0,38.1,31.3,33.5,0000.0,0019.56,0008.86,0007.56
2022-07-12 17:17:00,,0830.0,5.00,0.00,29.4,27.2,00.0,38.1,31.3,34.0,0000.0,0019.48,0008.80,0007.54
2022-07-12 17:18:00,,0830.1,5.01,0.00,29.4,27.1,00.0,38.1,31.2,34.1,0000.0,0020.71,0008.85,0007.58
2022-07-12 17:19:00,,0830.1,5.00,0.00,29.3,27.2,00.0,38.1,31.1,34.2,0000.0,0020.09,0008.96,0007.63
2022-07-12 17:20:00,,0830.0,4.99,0.00,29.3,27.4,00.0,38.1,31.1,34.2,0000.0,0019.83,0009.08,0007.65
2022-07-12 17:21:00,,0830.1,5.00,0.00,29.3,27.5,00.0,38.1,31.2,33.9,0000.0,0019.55,0009.13,0007.67
2022-07-12 17:22:00,,0830.1,5.01,0.00,29.3,27.7,00.0,38.1,31.2,33.3,0000.0,0019.68,0009.15,0007.71
2022-07-12 17:23:00,,0830.1,4.99,0.00,29.3,27.9,00.0,38.1,31.3,33.3,0000.0,0020.43,0009.16,0007.74
2022-07-12 17:24:00,,0830.0,5.01,0.00,29.4,28.0,00.0,38.1,31.3,33.3,0000.0,0019.85,0009.23,0007.78
2022-07-12 17:25:00,,0830.0,5.00,0.00,29.4,28.2,00.0,38.1,31.4,33.3,0000.0,0019.99,0009.25,0007.81
2022-07-12 17:26:00,,0830.0,5.00,0.00,29.4,28.2,00.0,38.1,31.4,33.9,0000.0,0021.10,0009.24,0007.84
2022-07-12 17:27:00,,0830.0,5.01,0.00,29.4,27.7,00.0,38.1,31.3,33.8,0000.0,0021.04,0009.28,0007.88
2022-07-12 17:28:00,,0830.0,5.00,0.00,29.4,27.3,00.0,38.0,31.2,33.5,0000.0,0021.27,0009.34,0007.93
2022-07-12 17:29:00,,0830.0,5.00,0.00,29.4,27.2,00.0,38.0,31.2,33.3,0000.0,0021.03,0009.36,0007.95
2022-07-12 17:30:00,,0830.0,5.00,0.00,29.3,27.2,00.0,38.0,31.1,33.7,0000.0,0021.45,0009.37,0007.96
2022-07-12 17:31:00,,0830.0,5.01,0.00,29.3,27.4,00.0,38.0,31.1,33.8,0000.0,0021.51,0009.31,0007.98
2022-07-12 17:32:00,,0830.0,5.01,0.00,29.3,27.5,00.0,38.0,31.1,33.9,0000.0,0022.49,0009.36,0008.00
2022-07-12 17:33:00,,0830.1,4.99,0.00,29.3,27.7,00.0,38.1,31.2,34.0,0000.0,0022.78,0009.37,0008.00
2022-07-12 17:34:00,,0830.1,4.99,0.00,29.3,27.9,00.0,38.1,31.2,33.7,0000.0,0023.09,0009.39,0008.00
2022-07-12 17:35:00,,0830.1,5.01,0.00,29.3,28.0,00.0,38.1,31.3,33.3,0000.0,0024.00,0009.40,0008.01
2022-07-12 17:36:00,,0830.1,4.99,0.00,29.4,28.2,00.0,38.1,31.3,33.1,0000.0,0023.97,0009.38,0008.01
2022-07-12 17:37:00,,0830.1,4.99,0.00,29.4,28.3,00.0,38.1,31.4,33.0,0000.0,0023.54,0009.40,0008.02
2022-07-12 17:38:00,,0830.0,5.01,0.00,29.4,27.9,00.0,38.1,31.3,33.1,0000.0,0024.00,0009.40,0008.02
2022-07-12 17:39:00,,0829.9,5.01,0.00,29.4,27.4,00.0,38.0,31.3,33.2,0000.0,0023.93,0009.42,0008.03
2022-07-12 17:40:00,,0829.9,4.99,0.00,29.4,27.2,00.0,38.0,31.2,33.4,0000.0,0023.68,0009.50,0008.05
2022-07-12 17:41:00,,0829.9,5.01,0.00,29.3,27.2,00.0,38.0,31.1,33.5,0000.0,0022.77,0009.50,0008.04
2022-07-12 17:42:00,,0829.9,5.01,0.00,29.3,27.3,00.0,38.0,31.0,33.1,0000.0,0022.50,0009.48,0008.04
2022-07-12 17:43:00,,0829.8,4.99,0.00,29.3,27.5,00.0,38.0,31.1,32.9,0000.0,0021.44,0009.41,0008.03
2022-07-12 17:44:00,,0829.9,5.01,0.00,29.3,27.7,00.0,38.0,31.1,33.1,0000.0,0020.52,0009.40,0008.02
2022-07-12 17:45:00,,0829.9,4.99,0.00,29.3,27.8,00.0,38.1,31.2,33.0,0000.0,0019.74,0009.42,0008.03
2022-07-12 17:46:00,,0830.0,5.00,0.00,29.3,28.0,00.0,38.1,31.3,33.2,0000.0,0019.21,0009.43,0008.04
2022-07-12 17:47:00,,0829.9,4.99,0.00,29.4,28.1,00.0,38.1,31.3,33.4,0000.0,0019.80,0009.44,0008.04
2022-07-12 17:48:00,,0829.9,5.00,0.00,29.4,28.3,00.0,38.1,31.4,33.6,0000.0,0019.40,0009.46,0008.04
2022-07-12 17:49:00,,0829.8,5.00,0.00,29.4,28.0,00.0,38.1,31.4,33.6,0000.0,0019.82,0009.46,0008.03
2022-07-12 17:50:00,,0829.9,5.00,0.00,29.4,27.4,00.0,38.0,31.3,33.8,0000.0,0019.80,0009.47,0008.01
2022-07-12 17:51:00,,0829.8,5.00,0.00,29.4,27.1,00.0,38.0,31.2,33.9,0000.0,0018.82,0009.37,0007.97
2022-07-12 17:52:00,,0829.9,5.00,0.00,29.3,27.2,00.0,38.0,31.1,34.1,0000.0,0018.52,0009.37,0007.97
2022-07-12 17:53:00,,0829.9,5.00,0.00,29.3,27.3,00.0,38.0,31.1,34.3,0000.0,0019.34,0009.37,0007.97
2022-07-12 17:54:00,,0829.8,5.00,0.00,29.3,27.5,00.0,38.0,31.1,33.8,0000.0,0020.08,0009.37,0007.95
2022-07-12 17:55:00,,0829.8,5.00,0.00,29.3,27.6,00.0,38.0,31.2,33.6,0000.0,0020.09,0009.39,0007.94
2022-07-12 17:56:00,,0829.8,5.00,0.00,29.3,27.8,00.0,38.0,31.2,33.2,0000.0,0019.80,0009.39,0007.93
2022-07-12 17:57:00,,0829.8,4.99,0.00,29.3,28.0,00.0,38.1,31.3,33.0,0000.0,0019.34,0009.31,0007.91
2022-07-12 17:58:00,,0829.8,5.00,0.00,29.4,28.1,00.0,38.1,31.3,32.8,0000.0,0018.63,0009.29,0007.89
2022-07-12 17:59:00,,0829.8,5.00,0.00,29.4,28.2,00.0,38.1,31.4,32.7,0000.0,0018.55,0009.28,0007.87
